[[{"header":{"parameterUnit":"m.s-1","parameterCategory":1,"la1":30.2991,"la2":30.254,"lo1":-89.0895,"lo2":-89.0444,"dy":0.0017,"dx":0.0017,"nx":28,"ny":28,"refTime":"2025-12-16T09:00:00:Z","depth":0,"parameterNumber":2,"parameterNumberName":"U-component_of_WINDS"},"data":[0,0,0,0,0,0,0,0,0,0,0,0,0,0,0,0,0,0,0,0,0,0,0,0,0,0,0,0,0,0,0,0,0,0,0,0,0,0,0,0,0,0,0,0,0,0,0,0,0,0,0,0,0,0,0,0,0,0,-2.9201,-2.9202,0,-2.9256,-2.9257,-2.9257,-2.9179,-2.9177,-2.9174,-2.9171,-2.9232,-2.9236,-2.924,0,0,0,0,0,0,0,0,0,0,0,0,0,-2.9034,-2.9038,-2.9201,-2.9202,-2.9202,-2.9256,-2.9257,-2.9257,-2.918,-2.9177,-2.9173,-2.917,-2.9231,-2.9236,-2.9241,0,0,0,0,0,0,0,0,0,0,0,0,0,-2.91,-2.9039,-2.9201,-2.917,-2.9168,-2.9256,-2.9257,-2.9258,-2.9181,-2.9176,-2.9172,-2.9168,-2.9229,-2.9235,-2.9241,-2.9363,0,0,-2.926,-2.9263,0,0,0,0,0,0,0,0,-2.9096,-2.9106,-2.9174,-2.9172,-2.917,-2.9206,-2.922,-2.9293,-2.9182,-2.9176,-2.9171,-2.9166,-2.9227,-2.9233,-2.9253,-2.9366,-2.9369,-2.9261,-2.9265,-2.9268,-2.9269,0,0,0,0,0,0,0,-2.9092,-2.9103,-2.9223,-2.9175,-2.9173,-2.9155,-2.916,-2.9234,-2.9224,-2.9176,-2.9171,-2.9178,-2.9225,-2.9247,-2.9254,-2.937,-2.9261,-2.9266,-2.927,-2.9273,-2.9589,-2.9594,0,0,0,0,0,0,-2.909,-2.91,-2.9221,-2.9224,-2.9122,-2.9162,-2.9167,-2.9199,-2.9223,-2.9223,-2.9181,-2.9174,-2.9238,-2.9246,-2.9256,-2.9402,-2.9268,-2.9273,-2.9277,-2.9585,-2.959,-2.9595,0,0,0,0,0,0,-2.9087,-2.9102,-2.9219,-2.9161,-2.9174,-2.9169,-2.9206,-2.9202,-2.9224,-2.9227,-2.9226,-2.9205,-2.9235,-2.9247,-2.9338,-2.9403,-2.9276,-2.9282,-2.9579,-2.9587,-2.9593,-2.9695,0,0,0,0,0,0,-2.9082,-2.9101,-2.9146,-2.9162,-2.9178,-2.9298,-2.921,-2.9206,-2.9234,-2.9225,-2.9249,-2.9249,-2.9233,-2.9329,-2.9344,-2.9409,-2.9287,-2.9574,-2.9583,-2.9591,-2.9686,-2.9705,-2.9721,0,0,0,0,0,-2.9077,-2.9172,-2.9148,-2.9163,-2.9233,-2.9302,-2.9311,-2.929,-2.924,-2.9286,-2.9289,-2.9248,-2.9393,-2.9339,-2.9355,-2.9424,-2.9569,-2.958,-2.959,-2.9678,-2.9701,-2.972,0,0,0,0,0,0,-2.9164,-2.9174,-2.9147,-2.9251,-2.9276,-2.9289,-2.9346,-2.9314,-2.9355,-2.9345,-2.9318,-2.9324,-2.9422,-2.9432,-2.937,-2.9545,-2.9473,-2.9488,-2.9535,-2.9556,-2.9573,-2.9569,-2.9292,0,0,0,0,0,-2.9196,-2.9249,-2.9255,-2.9346,-2.936,-2.9352,-2.9381,-2.9362,-2.9388,-2.9398,-2.9407,-2.9435,-2.9488,-2.9522,-2.957,-2.9687,-2.9692,-2.9743,-2.976,-2.9774,-2.9787,-2.9852,-2.9875,-2.963,-2.963,-2.9629,0,0,-2.9261,-2.9273,-2.9308,-2.9364,-2.9382,-2.944,-2.9361,-2.9425,-2.9469,-2.9408,-2.9495,-2.9503,-2.9533,-2.9638,-2.9684,-2.9649,-2.9856,-2.9788,-2.9799,-2.9804,-2.9866,-2.9889,-2.991,-2.9637,-2.9636,-2.9634,0,0,-2.941,-2.9423,-2.9502,-2.9521,-2.9548,-2.9542,-2.9562,-2.958,-2.9583,-2.9669,-2.9626,-2.9678,-2.9768,-2.9791,-2.9815,-2.9977,-2.9942,-2.9993,-3.0084,-3.0148,-3.0168,-3.0185,-3.0244,-3.0266,-3.0006,-3.0006,-3.0006,0,-2.9488,-2.9572,-2.9546,-2.9614,-2.9641,-2.9589,-2.967,-2.969,-2.9733,-2.9754,-2.9713,-2.9826,-2.9842,-2.9954,-2.9993,-3.0014,-3.0037,-2.999,-3.0167,-3.0184,-3.0199,-3.0256,-3.0278,-3.0012,-3.0012,-3.0011,-3.001,0,-2.9668,-2.9727,-2.9787,-2.9829,-2.9863,-2.9937,-2.9925,-2.9963,-2.9942,-2.9942,-3.0032,-3.005,-3.0102,-3.0126,-3.0107,-3.0236,-3.0214,-3.0171,-3.0098,-3.0229,-3.0282,-3.0303,-3.0021,-3.0019,-3.0017,-3.0015,0,0,-2.9871,-2.99,-2.9923,-2.9942,-2.997,-3.0016,-3.009,-3.0139,-3.0174,-3.0206,-3.0268,-3.0346,-3.0307,-3.0335,-3.0318,-3.0374,-3.0504,-3.0324,-3.0324,-3.0358,-3.065,-3.0683,-3.0708,-3.0481,-3.0485,-3.0488,-3.0648,0,-3.0021,-3.0146,-3.0127,-3.0248,-3.0304,-3.0257,-3.0321,-3.0347,-3.0349,-3.0399,-3.0401,-3.0458,-3.0401,-3.0418,-3.0471,-3.0476,-3.0562,-3.0464,-3.0541,-3.0544,-3.0535,-3.0735,-3.077,-3.092,-3.0668,-3.0672,-3.0674,0,-3.0212,-3.0251,-3.0378,-3.0399,-3.0422,-3.048,-3.0526,-3.0573,-3.0602,-3.06,-3.0632,-3.0606,-3.0682,-3.0609,-3.0715,-3.0649,-3.0679,-3.0687,-3.0692,-3.0699,-3.0617,-3.0749,-3.0967,-3.099,-3.0706,-3.0704,-3.0701,0,-3.035,-3.0434,-3.0522,-3.054,-3.0567,-3.0609,-3.0622,-3.0647,-3.068,-3.072,-3.0742,-3.0791,-3.0819,-3.0859,-3.0848,-3.0795,-3.0958,-3.0883,-3.096,-3.0961,-3.0996,-3.0995,-3.1224,-3.1015,-3.1014,-3.1014,-3.1013,0,-3.052,-3.06,-3.0584,-3.0638,-3.0728,-3.0706,-3.0796,-3.0804,-3.0827,-3.0884,-3.0847,-3.0901,-3.0883,-3.0937,-3.0929,-3.102,-3.1032,-3.1034,-3.1031,-3.1038,-3.1038,-3.1058,-3.1048,-3.102,-3.1019,-3.1017,-3.1016,0,-3.0689,-3.0681,-3.0774,-3.0793,-3.0799,-3.0865,-3.0881,-3.0934,-3.0933,-3.1006,-3.1021,-3.1022,-3.1084,-3.1077,-3.1147,-3.1142,-3.1255,-3.1239,-3.1245,-3.1241,-3.132,-3.1313,-3.157,-3.1604,-3.1372,-3.1374,-3.1376,0,-3.0798,-3.0858,-3.0884,-3.0919,-3.0935,-3.0991,-3.1024,-3.1007,-3.1043,-3.1083,-3.1131,-3.1189,-3.1235,-3.1338,-3.1345,-3.1399,-3.1385,-3.1472,-3.1393,-3.1399,-3.1389,-3.1386,-3.1393,-3.1488,-3.149,-3.1492,-3.1494,0,-3.0993,-3.0987,-3.1035,-3.1083,-3.1124,-3.1161,-3.1195,-3.1226,-3.1212,-3.1255,-3.1318,-3.1354,-3.1425,-3.1485,-3.1537,-3.1553,-3.1523,-3.1519,-3.154,-3.1548,-3.155,-3.1552,-3.1288,-3.1513,-3.1511,-3.151,-3.1509,-3.1508,-3.1136,-3.1189,-3.1216,-3.1272,-3.1295,-3.1328,-3.1379,-3.1385,-3.1437,-3.1493,-3.148,-3.1552,-3.1583,-3.1649,-3.1671,-3.1728,-3.1697,-3.1727,-3.1735,-3.1743,-3.1753,-3.154,-3.1738,-3.1737,-3.1736,-3.1736,-3.1736,0,-3.133,-3.1346,-3.1397,-3.1446,-3.1491,-3.1458,-3.1494,-3.1535,-3.1598,-3.1628,-3.1675,-3.1749,-3.1808,-3.1821,-3.1878,-3.1921,-3.1909,-3.1937,-3.1934,-3.1939,-3.1777,-3.1753,-3.1946,-3.1946,-3.1946,-3.1946,-3.1946,-3.1946,-3.1437,-3.1525,-3.1523,-3.1624,-3.1639,-3.1708,-3.1732,-3.1764,-3.1788,-3.1872,-3.192,-3.1928,-3.1953,-3.2012,-3.2066,-3.2068,-3.2092,-3.2126,-3.2123,-3.1971,-3.195,-3.193,-3.1908,-3.213,-3.2131,-3.2281,-3.2282,-3.2283]},{"header":{"parameterUnit":"m.s-1","parameterCategory":1,"la1":30.2991,"la2":30.254,"lo1":-89.0895,"lo2":-89.0444,"dy":0.0017,"dx":0.0017,"nx":28,"ny":28,"refTime":"2025-12-16T09:00:00:Z","depth":0,"parameterNumber":3,"parameterNumberName":"V-component_of_WINDS"},"data":[0,0,0,0,0,0,0,0,0,0,0,0,0,0,0,0,0,0,0,0,0,0,0,0,0,0,0,0,0,0,0,0,0,0,0,0,0,0,0,0,0,0,0,0,0,0,0,0,0,0,0,0,0,0,0,0,0,0,0.1084,0.1084,0,0.1087,0.1087,0.1088,0.115,0.1152,0.1154,0.1155,0.1155,0.1154,0.1152,0,0,0,0,0,0,0,0,0,0,0,0,0,0.1131,0.113,0.1084,0.1084,0.1084,0.1087,0.1087,0.1088,0.115,0.1152,0.1154,0.1156,0.1156,0.1154,0.1152,0,0,0,0,0,0,0,0,0,0,0,0,0,0.112,0.1129,0.1084,0.1116,0.1119,0.1087,0.1087,0.1088,0.115,0.1152,0.1154,0.1157,0.1156,0.1154,0.1152,0.1089,0,0,0.1145,0.1144,0,0,0,0,0,0,0,0,0.112,0.1118,0.1111,0.1114,0.1117,0.1121,0.1104,0.1088,0.1149,0.1138,0.1155,0.1158,0.1142,0.1141,0.1136,0.109,0.109,0.1145,0.1144,0.1143,0.1142,0,0,0,0,0,0,0,0.1121,0.1118,0.1086,0.1111,0.1115,0.113,0.1131,0.1101,0.1126,0.1139,0.1144,0.1143,0.1144,0.1138,0.1136,0.109,0.1145,0.1143,0.1142,0.1141,0.0993,0.099,0,0,0,0,0,0,0.1118,0.1118,0.1085,0.1086,0.1125,0.1127,0.1128,0.1117,0.1127,0.113,0.1141,0.1146,0.1141,0.1139,0.1137,0.1064,0.1143,0.114,0.1139,0.0995,0.0992,0.0989,0,0,0,0,0,0,0.1119,0.1114,0.1085,0.1103,0.1101,0.1123,0.1111,0.1116,0.111,0.1128,0.1133,0.1131,0.1143,0.114,0.1101,0.1065,0.1139,0.1137,0.0998,0.0994,0.0991,0.0918,0,0,0,0,0,0,0.112,0.1114,0.1091,0.1102,0.11,0.105,0.1109,0.1114,0.1107,0.1113,0.112,0.1123,0.1144,0.1104,0.1099,0.1063,0.1136,0.1001,0.0996,0.0992,0.0924,0.0913,0.0903,0,0,0,0,0,0.1121,0.107,0.1089,0.1085,0.1071,0.1048,0.1046,0.1072,0.1104,0.108,0.1092,0.1123,0.107,0.11,0.1094,0.1057,0.1004,0.0998,0.0992,0.0929,0.0915,0.0903,0,0,0,0,0,0,0.1052,0.1072,0.1094,0.1045,0.1044,0.1058,0.1029,0.1056,0.1046,0.1052,0.1085,0.1086,0.1042,0.1046,0.1078,0.0998,0.1043,0.1035,0.0996,0.0983,0.0973,0.0972,0.1134,0,0,0,0,0,0.1031,0.1011,0.1029,0.0984,0.0983,0.1006,0.0997,0.1017,0.1018,0.1017,0.1026,0.1025,0.1008,0.0996,0.0982,0.0926,0.0928,0.0898,0.0887,0.0878,0.0871,0.0842,0.0829,0.097,0.097,0.097,0,0,0.0988,0.0996,0.0981,0.0971,0.0973,0.0951,0.1005,0.098,0.0963,0.1013,0.0977,0.0984,0.0984,0.0937,0.0916,0.0939,0.0833,0.0871,0.0864,0.0861,0.0835,0.0821,0.0809,0.0966,0.0967,0.0967,0,0,0.0897,0.0902,0.0865,0.0866,0.0869,0.0885,0.0876,0.0887,0.0893,0.0858,0.0895,0.0876,0.0846,0.0845,0.0841,0.0751,0.0779,0.0746,0.0689,0.066,0.0649,0.064,0.0607,0.0595,0.0739,0.0739,0.0739,0,0.0842,0.0811,0.0842,0.0814,0.0808,0.0854,0.0817,0.0816,0.0814,0.0808,0.0834,0.0799,0.0802,0.0755,0.0734,0.0729,0.0719,0.0744,0.0649,0.0639,0.063,0.06,0.0587,0.0735,0.0735,0.0736,0.0736,0,0.0743,0.0721,0.0691,0.0689,0.068,0.0647,0.0673,0.066,0.0682,0.0695,0.0658,0.0665,0.0652,0.0643,0.0663,0.0599,0.0613,0.0643,0.0688,0.0612,0.0584,0.0572,0.0729,0.073,0.0731,0.0733,0,0,0.0607,0.0624,0.0612,0.0612,0.0619,0.0602,0.0572,0.0561,0.0549,0.0547,0.0521,0.0496,0.0525,0.052,0.0541,0.0515,0.0444,0.0549,0.055,0.0529,0.0373,0.0349,0.0334,0.0463,0.0461,0.046,0.0372,0,0.0519,0.0469,0.0496,0.0442,0.0422,0.0466,0.044,0.0441,0.0453,0.0437,0.045,0.0431,0.0471,0.0468,0.0445,0.0457,0.0413,0.0464,0.0439,0.0438,0.0436,0.032,0.0294,0.0211,0.0361,0.036,0.0358,0,0.0409,0.0403,0.0346,0.0358,0.0351,0.0327,0.0319,0.0304,0.0307,0.0317,0.0312,0.034,0.031,0.0356,0.0316,0.0351,0.0342,0.0347,0.0344,0.0342,0.0392,0.0313,0.0186,0.0173,0.0341,0.0343,0.0344,0,0.0314,0.0292,0.0256,0.0254,0.0267,0.0249,0.0254,0.0259,0.0251,0.0244,0.024,0.0229,0.0223,0.0215,0.0238,0.027,0.0195,0.0243,0.0202,0.0201,0.0182,0.0183,0.005,0.0179,0.0179,0.0179,0.018,0,0.0212,0.0176,0.0213,0.019,0.0151,0.0184,0.0144,0.0153,0.0157,0.0137,0.0175,0.0155,0.0188,0.0171,0.0189,0.0153,0.015,0.0157,0.0162,0.0153,0.0152,0.0147,0.0153,0.0176,0.0177,0.0177,0.0178,0,0.0099,0.0123,0.0086,0.0102,0.0105,0.0075,0.0089,0.0069,0.0084,0.0058,0.0053,0.0077,0.0059,0.0082,0.0066,0.0079,0.0029,0.0043,0.0028,0.0032,-0.0011,-0.0008,-0.0153,-0.017,-0.003,-0.0031,-0.0032,0,0.0031,0.0005,0.0018,0.0008,0.0011,-0.0007,-0.0014,0.0017,0.0008,0.001,-0.0011,-0.0026,-0.0036,-0.0066,-0.0051,-0.0063,-0.0049,-0.0099,-0.0051,-0.0059,-0.0051,-0.0051,-0.0053,-0.011,-0.0111,-0.0113,-0.0114,0,-0.0091,-0.0078,-0.0089,-0.0097,-0.0107,-0.0111,-0.0114,-0.0124,-0.0091,-0.0104,-0.0121,-0.0129,-0.0144,-0.0159,-0.0166,-0.0162,-0.0133,-0.0129,-0.0139,-0.015,-0.0158,-0.0155,-0.0,-0.0126,-0.0125,-0.0124,-0.0123,-0.0123,-0.0184,-0.0206,-0.0199,-0.0213,-0.0211,-0.0214,-0.0232,-0.0218,-0.0231,-0.0241,-0.0221,-0.0244,-0.0239,-0.0246,-0.0245,-0.0262,-0.0241,-0.0256,-0.026,-0.0264,-0.0271,-0.0153,-0.0264,-0.0263,-0.0263,-0.0263,-0.0262,0,-0.0306,-0.0299,-0.0312,-0.0315,-0.0326,-0.0296,-0.0296,-0.0308,-0.0327,-0.0326,-0.0335,-0.0355,-0.0369,-0.0354,-0.0366,-0.0382,-0.0369,-0.0386,-0.0386,-0.0385,-0.029,-0.028,-0.0397,-0.0397,-0.0397,-0.0397,-0.0397,-0.0397,-0.037,-0.0405,-0.039,-0.0424,-0.0416,-0.0437,-0.044,-0.0442,-0.044,-0.0463,-0.0474,-0.0464,-0.0457,-0.0467,-0.0479,-0.0474,-0.0481,-0.0503,-0.0494,-0.0405,-0.0392,-0.038,-0.037,-0.0504,-0.0505,-0.0588,-0.0589,-0.059]}]]